This is the latest recevied weather packets stored in our database for station/object DO1SC. If no packets are shown the sender has not sent any weather packets the latest 10 day(s).
| Time | Temp. | Humidity | Pressure | Rain* | Wind** | Luminosity | Snow |
|---|---|---|---|---|---|---|---|
| 1777814118 | 23.89° C | 28% | 1014.8 hPa | - | - | 593 W/m² | - |
| 1777813533 | 23.33° C | 29% | 1014.9 hPa | - | - | 469 W/m² | - |
| 1777812922 | 23.89° C | 28% | 1015 hPa | - | - | 497 W/m² | - |
| 1777812333 | 23.89° C | 28% | 1015 hPa | - | - | 431 W/m² | - |
| 1777811724 | 23.33° C | 30% | 1015.2 hPa | - | - | 548 W/m² | - |
| 1777811136 | 23.89° C | 29% | 1015.3 hPa | - | - | 573 W/m² | - |
| 1777810530 | 23.89° C | 29% | 1015.3 hPa | - | - | 518 W/m² | - |
| 1777809917 | 24.44° C | 28% | 1015.4 hPa | - | - | 588 W/m² | - |
| 1777809332 | 23.89° C | 29% | 1015.6 hPa | - | - | 641 W/m² | - |
| 1777808721 | 23.89° C | 28% | 1015.7 hPa | - | - | 622 W/m² | - |
| 1777808135 | 23.33° C | 29% | 1015.8 hPa | - | - | 661 W/m² | - |
| 1777807523 | 23.33° C | 30% | 1015.9 hPa | - | - | 601 W/m² | - |
| 1777806934 | 22.78° C | 30% | 1015.9 hPa | - | - | 588 W/m² | - |
| 1777806326 | 22.78° C | 30% | 1016 hPa | - | - | 532 W/m² | - |
| 1777805718 | 23.33° C | 29% | 1016.1 hPa | - | - | 570 W/m² | - |
| 1777805132 | 23.33° C | 30% | 1016.1 hPa | - | - | 616 W/m² | - |
| 1777804521 | 22.78° C | 30% | 1016.3 hPa | - | - | 561 W/m² | - |
| 1777803936 | 23.33° C | 30% | 1016.3 hPa | - | - | 551 W/m² | - |
| 1777803324 | 23.33° C | 28% | 1016.4 hPa | - | - | 502 W/m² | - |
| 1777802736 | 23.33° C | 27% | 1016.4 hPa | - | - | 474 W/m² | - |
| 1777802130 | 22.78° C | 28% | 1016.4 hPa | - | - | 480 W/m² | - |
| 1777801519 | 23.33° C | 27% | 1016.6 hPa | - | - | 481 W/m² | - |
| 1777800934 | 22.78° C | 28% | 1016.5 hPa | - | - | 606 W/m² | - |
| 1777800321 | 22.78° C | 28% | 1016.7 hPa | - | - | 553 W/m² | - |
| 1777799733 | 22.78° C | 28% | 1016.7 hPa | - | - | 528 W/m² | - |
* Rain since midnight (hover to see other rain measurements)
** Current wind speed in m/s (hover to see current wind gust speed)